Location: La Fredeussais
(48.1780°N, 1.3980°W)
Time: 16:35:48
(UTC+00:00)

USA 290 - Pass Details

Date: 09 May 2021
Orbit: 400 x 415 km, 73.6° (Epoch: 12 May)

Event Time Altitude Azimuth Distance (km) Brightness Sun altitude
Rises 20:06:19 0° 341° (NNW) 2,356 7.0 -5.9°
Reaches altitude 10° 20:08:26 10° 348° (NNW) 1,486 5.8 -6.2°
Maximum altitude 20:11:35 45° 63° (ENE) 567 2.7 -6.6°
Drops below altitude 10° 20:14:42 10° 138° (SE) 1,465 4.3 -7.0°
Enters shadow 20:14:53 - 139° (SE) 1,541 4.5 -7.1°
